Wind_Speed
7 7 10 9 13 16 16 13 15 16 15 11 16 19 21 18 17 17 17 17 19 19 16 18 20 21 22 26 28 30 29 28 26 25 22 17 16 14 11 10 11 9 6 5
5 12 11 10 7 10 13 15 17 17 10 9 17 22 21 22 19 19 21 19 20 17 16 17 22 24 26 28 31 32 32 32 29 26 24 15 18 13 12 11 11 10 8 6
12 1 2 2 7 8 11 13 15 17 18 17 17 17 20 18 12 12 18 19 16 18 15 15 15 23 28 29 32 35 36 35 31 27 24 17 18 15 13 13 12 11 9 7
10 5 5 10 12 10 14 10 13 14 10 6 1 7 14 12 12 11 14 9 9 10 12 13 16 20 26 32 34 35 35 35 33 31 28 29 24 20 15 16 13 12 10 8
2 3 5 7 7 4 4 4 7 9 11 12 15 8 7 6 9 11 12 10 13 9 9 10 13 20 26 28 32 35 35 34 33 33 32 30 20 18 18 16 16 12 11 9
17 9 6 10 4 7 2 6 8 7 7 7 14 13 7 8 4 9 14 14 14 11 11 9 10 13 17 22 27 32 35 37 36 34 30 29 24 22 21 19 17 13 11 9
4 12 3 4 7 8 7 5 3 5 4 6 4 6 11 16 8 8 10 14 17 16 16 13 10 6 10 17 25 29 33 33 34 34 31 29 25 25 24 23 20 17 13 11
6 5 4 3 6 6 8 8 4 6 7 4 3 5 2 7 7 10 10 12 18 16 16 14 11 7 8 12 19 23 28 29 31 32 31 28 26 25 21 22 19 17 15 13
5 4 2 0 4 4 3 7 6 6 3 4 7 10 13 3 10 7 8 14 18 18 17 16 13 11 5 8 15 21 23 26 28 31 30 28 28 26 24 22 19 17 16 15
5 7 1 3 2 7 6 7 3 4 5 9 5 5 8 12 8 10 10 15 19 19 19 14 12 12 7 7 11 16 20 24 27 29 30 31 31 27 25 25 24 22 19 16
3 3 4 8 3 8 2 4 5 5 8 9 9 6 8 7 6 11 14 16 20 19 18 16 11 13 9 6 8 13 17 21 25 27 27 30 31 29 27 27 24 22 20 18
2 4 7 14 12 8 8 11 10 4 9 8 12 16 13 7 9 14 18 20 18 18 19 16 12 11 9 6 8 12 15 20 24 26 26 30 32 31 29 27 25 23 21 19
6 2 6 6 9 2 3 4 3 9 6 16 11 10 3 15 23 18 21 22 18 19 20 18 14 13 10 9 10 12 16 19 23 24 27 29 31 32 30 29 27 25 24 22
4 6 8 12 15 11 13 15 14 10 6 11 16 19 19 23 27 32 24 19 20 19 19 18 16 15 20 17 12 13 16 19 23 25 27 31 35 35 33 31 28 26 25 24
3 7 9 14 16 16 19 21 19 15 15 13 27 22 18 20 23 18 22 19 19 20 20 16 15 15 19 18 14 16 19 21 24 26 29 34 36 34 33 31 29 28 26 25
5 9 12 16 16 16 19 20 20 22 20 21 24 27 19 17 18 17 19 20 17 16 17 18 18 16 16 21 18 19 24 26 26 31 33 36 36 34 34 33 32 29 27 25
6 7 5 16 12 10 10 15 19 18 20 17 20 17 13 12 11 13 17 21 18 13 18 20 19 17 22 24 23 18 23 29 29 30 32 35 38 37 36 35 33 31 30 27
10 11 9 12 7 17 12 13 13 18 19 18 20 18 13 9 12 14 17 15 9 15 19 21 17 26 29 29 26 26 21 26 30 29 30 35 36 35 36 35 34 33 32 30
18 14 11 11 13 17 20 19 20 20 23 21 20 20 17 16 16 18 2 3 12 15 17 23 29 30 32 30 28 23 20 25 27 28 30 34 37 35 37 36 37 35 33 30
17 17 13 11 12 20 19 18 20 16 17 16 19 21 14 14 13 10 13 16 15 18 23 28 32 33 28 28 26 22 21 23 27 29 31 37 38 38 39 40 37 36 34 32
4 7 15 15 15 14 18 19 18 17 14 19 11 14 16 14 11 13 15 16 16 18 24 30 30 28 29 28 23 20 20 23 25 28 31 34 40 40 41 38 36 35 33 29
12 8 9 9 13 19 19 18 19 18 15 13 10 16 16 17 16 16 16 15 13 15 24 26 29 26 28 23 18 18 18 19 22 29 30 31 33 34 34 35 31 32 30 27
14 15 11 10 9 10 12 9 8 14 13 14 13 16 17 15 17 19 18 17 15 18 23 24 26 25 22 18 16 16 15 16 22 26 26 27 29 30 31 32 30 28 28 24
11 9 8 16 17 19 20 11 12 11 13 15 12 13 14 17 17 18 16 14 15 19 20 25 22 17 17 18 17 15 12 13 21 22 22 23 25 26 28 27 27 26 27 23
11 8 12 13 18 21 15 15 18 19 16 15 13 12 14 14 16 16 14 14 14 19 21 20 17 15 15 17 17 16 10 7 12 15 18 22 21 24 24 26 27 28 30 33
16 17 11 12 18 13 16 12 14 14 14 15 14 13 13 13 16 16 11 14 15 16 21 17 14 14 13 13 15 15 12 4 7 9 15 18 18 19 20 20 16 22 22 28
Wind_Direction
200 239 230 251 232 263 288 284 279 280 284 267 272 270 274 272 267 259 257 257 250 245 246 250 247 217 208 200 192 189 183 181 173 167 164 167 173 169 167 177 190 188 194 200
211 245 265 292 283 264 263 269 274 283 293 284 282 275 269 269 263 258 258 251 250 249 240 232 225 221 203 201 195 190 186 181 179 175 174 171 169 175 176 183 186 191 198 200
247 258 22 301 246 254 254 260 276 280 299 289 271 279 252 260 246 258 254 254 259 259 256 232 220 216 202 201 197 192 189 184 180 176 169 160 161 158 174 183 186 192 195 201
263 276 256 253 257 265 278 288 285 280 290 275 59 292 298 278 270 256 262 263 276 284 267 254 237 212 211 204 198 194 190 185 182 175 171 170 170 171 191 185 186 188 192 195
352 257 244 246 256 230 257 333 293 287 275 287 268 254 264 229 261 288 54 359 342 342 337 303 252 241 212 208 198 193 189 185 183 181 179 179 181 176 168 173 177 180 188 198
264 278 274 265 271 235 277 280 259 272 268 254 251 236 267 262 310 2 24 32 29 6 344 321 295 256 218 204 201 194 187 187 184 183 181 181 179 166 161 169 171 177 185 193
278 236 244 257 260 219 217 252 283 228 207 255 38 279 252 287 350 30 71 50 30 23 13 1 343 277 236 211 199 195 192 189 183 182 183 182 177 179 177 175 173 174 178 187
285 265 187 148 258 318 217 201 228 274 268 309 199 246 130 49 66 95 88 48 22 24 20 14 4 332 257 218 202 200 195 188 184 182 182 179 175 179 177 178 177 177 183 185
316 235 82 294 319 292 166 223 268 275 218 259 242 268 281 224 112 104 58 19 20 15 12 8 3 1 314 240 217 205 199 192 186 182 177 175 177 178 178 179 178 173 177 183
359 286 246 15 287 232 257 337 232 209 257 255 237 239 254 115 53 47 38 10 6 2 359 6 359 358 333 267 234 216 204 199 188 182 179 177 180 180 182 180 178 181 183 180
331 264 246 314 229 353 311 262 249 292 264 262 268 250 80 71 61 16 4 359 347 347 356 355 354 344 333 297 249 219 211 198 189 184 179 173 176 179 183 184 184 186 184 181
21 285 268 263 278 304 285 295 318 280 256 252 262 259 270 109 22 354 344 339 348 342 342 338 341 336 328 294 254 228 210 199 191 186 178 176 178 181 183 183 186 187 185 184
352 275 299 262 224 115 356 19 355 344 251 255 276 258 245 348 337 332 338 337 339 340 333 336 340 342 324 287 247 230 217 201 190 183 177 174 178 183 184 185 186 187 188 187
285 254 254 265 308 318 294 292 291 295 275 305 268 288 313 328 325 318 332 340 338 332 334 335 334 331 329 313 253 231 221 207 191 183 179 178 184 190 187 187 188 190 191 190
241 253 247 263 276 282 286 286 289 275 265 255 274 286 295 295 291 300 319 332 330 329 327 332 332 331 325 323 280 241 223 208 195 186 185 191 191 191 190 189 191 192 191 194
203 261 268 270 276 276 274 273 274 274 271 262 271 272 294 313 317 321 318 320 315 320 323 323 322 320 316 316 302 266 232 211 198 194 191 196 193 191 191 191 193 193 193 195
230 246 222 267 286 305 274 259 261 261 259 260 269 283 306 290 305 313 309 298 310 328 321 320 319 315 311 308 305 284 248 222 204 200 195 196 195 194 193 194 194 196 197 197
233 231 246 266 254 260 271 272 281 271 271 270 271 278 289 298 297 302 291 291 321 329 322 316 313 309 308 305 295 295 264 218 207 203 198 195 194 191 194 196 198 200 202 200
222 231 249 250 250 267 275 276 272 267 264 267 283 288 279 291 302 295 227 280 324 318 311 305 305 304 303 298 292 288 255 215 205 205 198 195 194 190 193 196 200 202 203 204
232 227 236 244 245 259 264 271 267 276 272 266 269 279 285 300 290 302 309 308 306 306 306 307 309 307 301 299 294 280 247 213 208 207 201 198 197 194 195 200 200 203 206 208
171 213 225 233 248 254 260 263 276 253 265 264 290 291 291 294 284 297 292 300 295 301 306 311 316 307 306 301 293 275 244 223 219 206 203 201 201 200 205 201 201 202 201 205
204 201 221 230 248 259 254 256 248 248 258 268 298 296 284 291 287 285 295 304 305 311 315 319 317 311 311 305 300 275 251 237 222 210 201 199 200 198 199 198 194 200 199 198
239 227 233 211 232 252 260 253 270 235 257 265 287 280 288 286 289 286 294 305 306 311 313 319 316 312 319 324 318 290 275 243 216 204 196 197 196 194 197 190 189 189 195 196
242 216 235 248 254 252 257 259 251 247 251 265 260 274 281 284 288 285 296 299 304 307 314 319 317 315 326 341 335 317 294 240 216 197 189 186 183 184 193 191 192 190 190 193
244 239 231 255 256 258 265 248 246 250 254 266 268 259 269 281 280 280 289 301 301 305 313 318 314 312 323 340 335 338 328 252 209 186 174 175 180 182 184 192 193 201 206 203
249 245 240 244 258 259 265 261 245 247 258 263 268 275 274 272 276 281 282 294 297 304 308 311 313 315 325 339 333 340 352 324 209 173 168 170 172 181 181 181 186 209 213 215
Height
771 770 764 753 756 756 755 758 753 744 737 743 741 732 722 717 717 716 716 715 713 712 712 716 721 725 732 736 741 745 750 756 760 763 769 774 778 782 785 790 792 793 795 797
771 763 753 752 760 760 760 760 754 743 739 743 737 730 722 711 710 707 705 706 705 706 707 711 715 719 724 729 733 740 744 749 754 758 764 770 775 780 784 787 789 791 793 795
761 750 759 760 759 762 758 758 752 749 739 736 735 725 710 700 699 699 696 696 700 701 701 704 709 711 716 721 726 732 737 742 748 754 762 768 773 778 782 784 787 788 791 792
758 752 759 759 759 756 758 747 746 749 750 746 740 734 710 696 693 692 691 693 696 698 698 700 702 707 710 713 718 725 732 737 743 749 755 760 765 770 775 780 784 786 788 791
754 757 759 758 753 753 753 754 753 750 750 745 735 740 712 695 701 690 695 697 697 697 701 699 698 698 703 709 713 718 726 733 739 744 748 755 763 767 772 778 781 783 786 789
760 758 763 754 752 754 753 753 749 750 749 750 730 724 708 692 690 694 701 706 706 705 703 701 698 697 698 705 711 715 719 725 731 738 744 750 757 762 767 773 777 781 784 786
755 753 758 761 758 754 757 754 753 747 756 736 729 726 704 695 694 706 709 710 709 708 706 704 701 699 700 703 707 711 716 721 726 732 740 746 752 757 762 767 772 777 781 784
758 751 756 760 757 750 752 754 745 735 721 717 725 726 697 699 703 707 709 712 709 709 710 708 706 704 703 704 706 710 713 718 724 729 736 742 748 753 759 764 769 773 778 782
773 757 759 763 762 761 754 761 744 749 761 754 720 706 698 694 704 707 709 713 711 711 711 712 710 707 706 707 708 710 713 717 722 726 732 738 743 750 754 761 767 771 776 778
798 785 761 763 765 761 765 758 756 755 750 732 710 715 707 704 710 714 715 717 715 715 712 712 714 711 710 709 709 711 713 716 720 724 728 732 738 746 751 757 763 768 772 775
800 798 765 761 757 760 763 763 762 752 735 729 720 705 698 708 716 718 722 725 724 719 715 714 715 715 712 710 709 710 712 715 719 722 726 730 736 742 749 754 759 764 768 772
804 802 791 771 757 761 772 769 770 768 741 732 727 713 690 709 718 725 727 728 727 725 722 717 713 713 711 710 710 710 711 713 716 720 723 727 732 739 745 750 756 761 765 769
811 802 801 770 765 775 783 785 792 799 790 770 756 716 698 706 724 731 733 727 726 725 721 717 714 712 711 709 709 709 710 711 714 717 720 724 729 734 740 747 752 757 762 767
813 811 811 793 777 797 798 791 789 795 808 778 762 741 742 744 744 726 733 734 733 730 728 724 720 716 713 709 707 707 708 710 711 713 716 719 723 729 737 743 749 754 760 764
815 818 812 809 801 799 795 793 791 797 796 801 767 779 774 767 758 749 741 741 739 734 732 730 725 720 714 710 707 706 706 707 708 710 713 716 720 726 734 740 746 752 757 762
814 813 806 809 803 801 800 793 789 785 781 775 767 760 755 751 753 755 752 747 743 740 735 731 725 720 715 709 706 704 703 704 705 706 708 712 717 723 730 736 743 749 753 758
814 810 817 807 798 801 809 794 783 779 776 778 777 763 761 760 763 760 754 747 741 741 736 727 722 718 713 707 704 700 698 699 701 703 705 708 713 720 726 733 739 744 748 753
806 809 806 802 811 808 777 768 769 768 764 762 758 754 757 757 756 752 748 741 743 739 732 725 720 714 708 703 698 695 693 692 695 697 699 702 709 715 722 728 734 740 744 748
796 798 800 800 793 779 772 769 769 764 756 750 746 746 746 747 746 743 742 739 738 736 731 723 717 711 703 698 692 689 686 686 689 691 693 697 703 709 715 722 728 734 739 744
788 793 795 790 796 785 762 755 751 748 755 751 746 739 742 744 745 736 739 737 734 731 726 718 710 703 697 691 686 682 679 679 678 682 686 690 696 702 707 714 721 728 734 739
792 790 784 781 775 766 754 750 751 762 758 739 740 740 739 741 741 739 735 731 729 724 719 712 705 698 691 684 679 674 672 669 673 677 682 686 690 695 701 709 717 722 729 735
766 775 771 775 777 770 743 746 752 737 734 734 738 736 735 735 732 730 727 724 721 717 712 705 699 691 685 679 674 668 666 668 669 672 675 680 686 692 697 703 711 718 725 730
753 744 746 750 739 732 734 737 735 736 739 734 735 731 731 731 727 722 720 718 716 713 708 702 696 688 681 676 671 666 663 663 665 667 670 676 682 687 692 698 704 712 719 725
732 736 741 739 733 731 728 732 733 733 732 729 729 728 728 726 723 718 717 714 712 709 703 697 692 686 680 674 671 667 663 661 661 663 667 672 678 683 689 695 700 705 710 717
730 729 735 735 727 721 723 721 722 722 723 723 722 723 723 722 719 715 712 711 708 705 701 695 690 685 680 675 673 669 663 661 662 663 665 668 675 680 686 690 693 700 701 706
721 722 723 720 712 715 712 712 713 714 716 715 717 717 716 716 713 710 707 706 705 702 698 692 688 685 680 677 675 670 665 663 662 663 665 667 672 678 681 686 692 698 700 703